DLH14E EDDS-EDDF

Flight info

Callsign DLH14E
Flight time N/A
Altitude 22000
Route ETASA4B/25 ETASA T163 SPESA SPESA5B
Aircraft A320/M-SDE3FGHIRWY/LB1

Departure

Time 2026-05-06 19:06
Airport Stuttgart Airport (EDDS)

Arrival

Time N/A
Airport Frankfurt Main Airport (EDDF)
Time Latitude Longitude Altitude Speed Heading
2026-05-06 18:37 48.68943 9.19645 1315 ft 0 kts 344°
2026-05-06 18:53 48.68942 9.19645 1315 ft 1 kts 344°
2026-05-06 18:54 48.68919 9.19655 1313 ft 4 kts 344°
2026-05-06 18:54 48.68894 9.19667 1311 ft 4 kts 332°
2026-05-06 18:54 48.68874 9.19691 1309 ft 4 kts 295°
2026-05-06 18:54 48.68871 9.19720 1307 ft 1 kts 254°
2026-05-06 18:55 48.68872 9.19726 1307 ft 1 kts 254°
2026-05-06 18:57 48.68866 9.19695 1308 ft 9 kts 255°
2026-05-06 18:57 48.68842 9.19565 1310 ft 15 kts 253°
2026-05-06 18:58 48.68811 9.19405 1313 ft 14 kts 249°
2026-05-06 18:58 48.68713 9.19407 1310 ft 18 kts 163°
2026-05-06 18:58 48.68701 9.19552 1305 ft 17 kts 73°
2026-05-06 18:58 48.68740 9.19755 1299 ft 23 kts 73°
2026-05-06 18:59 48.68815 9.19982 1295 ft 25 kts 49°
2026-05-06 18:59 48.68868 9.20188 1291 ft 23 kts 75°
2026-05-06 18:59 48.68916 9.20444 1285 ft 28 kts 73°
2026-05-06 18:59 48.68973 9.20742 1277 ft 30 kts 74°
2026-05-06 19:00 48.69030 9.21042 1270 ft 21 kts 73°
2026-05-06 19:00 48.69067 9.21245 1269 ft 22 kts 73°
2026-05-06 19:00 48.69109 9.21461 1263 ft 14 kts 76°
2026-05-06 19:00 48.69126 9.21550 1260 ft 14 kts 73°
2026-05-06 19:01 48.69166 9.21762 1261 ft 18 kts 75°
2026-05-06 19:01 48.69206 9.21970 1255 ft 23 kts 74°
2026-05-06 19:01 48.69242 9.22184 1245 ft 20 kts 79°
2026-05-06 19:01 48.69277 9.22403 1245 ft 23 kts 78°
2026-05-06 19:02 48.69326 9.22616 1234 ft 23 kts 71°
2026-05-06 19:02 48.69370 9.22846 1229 ft 24 kts 75°
2026-05-06 19:02 48.69410 9.23056 1224 ft 21 kts 73°
2026-05-06 19:02 48.69452 9.23268 1220 ft 22 kts 74°
2026-05-06 19:03 48.69492 9.23481 1216 ft 17 kts 71°
2026-05-06 19:03 48.69528 9.23669 1212 ft 20 kts 75°
2026-05-06 19:03 48.69568 9.23885 1207 ft 22 kts 74°
2026-05-06 19:03 48.69606 9.24090 1202 ft 19 kts 75°
2026-05-06 19:04 48.69576 9.24246 1196 ft 14 kts 123°
2026-05-06 19:04 48.69494 9.24319 1190 ft 9 kts 164°
2026-05-06 19:04 48.69490 9.24320 1190 ft 0 kts 165°
2026-05-06 19:04 48.69482 9.24324 1190 ft 6 kts 165°
2026-05-06 19:05 48.69409 9.24304 1191 ft 15 kts 214°
2026-05-06 19:05 48.69373 9.24216 1193 ft 4 kts 253°
2026-05-06 19:05 48.69358 9.24145 1194 ft 17 kts 253°
2026-05-06 19:05 48.69248 9.23567 1206 ft 94 kts 254°
2026-05-06 19:06 48.69016 9.22318 1241 ft 150 kts 255°
2026-05-06 19:06 48.68755 9.20672 1701 ft 162 kts 257°
2026-05-06 19:06 48.68492 9.19034 2516 ft 159 kts 255°
2026-05-06 19:06 48.68171 9.17424 3246 ft 162 kts 252°
2026-05-06 19:07 48.67809 9.15702 3732 ft 182 kts 252°
2026-05-06 19:07 48.67547 9.14448 3945 ft 197 kts 252°
2026-05-06 19:07 48.66997 9.11567 4547 ft 230 kts 263°
2026-05-06 19:07 48.67321 9.09178 5165 ft 244 kts 299°
2026-05-06 19:08 48.68371 9.07086 6074 ft 250 kts 320°
2026-05-06 19:08 48.69947 9.05903 6827 ft 265 kts 345°
2026-05-06 19:08 48.71779 9.05188 7559 ft 277 kts 344°
2026-05-06 19:08 48.73514 9.04369 8230 ft 260 kts 341°
2026-05-06 19:09 48.75142 9.03492 8967 ft 240 kts 340°
2026-05-06 19:09 48.76740 9.02906 9412 ft 236 kts 358°
2026-05-06 19:09 48.78316 9.03393 9780 ft 236 kts 27°
2026-05-06 19:09 48.79646 9.04848 10168 ft 236 kts 41°
2026-05-06 19:10 48.80865 9.06516 10541 ft 236 kts 43°
2026-05-06 19:10 48.82077 9.08244 10913 ft 236 kts 43°
2026-05-06 19:10 48.83234 9.09956 11289 ft 235 kts 49°
2026-05-06 19:10 48.83996 9.12149 11189 ft 238 kts 79°
2026-05-06 19:11 48.84090 9.14655 10859 ft 240 kts 92°
2026-05-06 19:11 48.84006 9.17183 10545 ft 240 kts 94°
2026-05-06 19:11 48.83899 9.19698 10260 ft 239 kts 94°
2026-05-06 19:11 48.83788 9.22216 9975 ft 238 kts 94°
2026-05-06 19:12 48.83677 9.24712 9692 ft 237 kts 94°
2026-05-06 19:12 48.83565 9.27201 9408 ft 236 kts 94°
2026-05-06 19:12 48.83453 9.29684 9124 ft 235 kts 94°
2026-05-06 19:12 48.83341 9.32147 8836 ft 234 kts 94°
2026-05-06 19:13 48.83265 9.33806 8655 ft 233 kts 94°
2026-05-06 19:13 48.83152 9.36265 8343 ft 234 kts 95°
2026-05-06 19:13 48.82895 9.38720 7983 ft 236 kts 103°
2026-05-06 19:13 48.82656 9.41154 7770 ft 231 kts 95°
2026-05-06 19:14 48.82351 9.43518 7573 ft 226 kts 112°
2026-05-06 19:14 48.81564 9.45425 7702 ft 204 kts 135°
2026-05-06 19:14 48.80406 9.46647 7324 ft 210 kts 159°
2026-05-06 19:14 48.78984 9.47118 6999 ft 208 kts 175°
2026-05-06 19:15 48.77542 9.47196 6519 ft 206 kts 182°
2026-05-06 19:15 48.76128 9.47009 6021 ft 201 kts 192°
2026-05-06 19:15 48.74859 9.46262 5357 ft 198 kts 214°
2026-05-06 19:15 48.73884 9.44812 4650 ft 192 kts 230°
2026-05-06 19:16 48.73125 9.43102 3871 ft 202 kts 244°
2026-05-06 19:16 48.72615 9.41167 3246 ft 191 kts 249°
2026-05-06 19:16 48.72186 9.39343 2797 ft 177 kts 253°
2026-05-06 19:16 48.71872 9.37610 2470 ft 163 kts 258°
2026-05-06 19:17 48.71590 9.36031 2209 ft 150 kts 253°
2026-05-06 19:17 48.71340 9.34574 2172 ft 134 kts 256°
2026-05-06 19:17 48.71091 9.33252 2037 ft 130 kts 252°
2026-05-06 19:17 48.70836 9.31968 1882 ft 126 kts 253°
2026-05-06 19:18 48.70594 9.30622 1828 ft 141 kts 249°
2026-05-06 19:18 48.70281 9.29187 1831 ft 147 kts 244°
2026-05-06 19:18 48.69997 9.27654 1693 ft 159 kts 256°
2026-05-06 19:18 48.69716 9.26095 1480 ft 148 kts 253°
2026-05-06 19:19 48.69449 9.24661 1294 ft 136 kts 256°
2026-05-06 19:19 48.69217 9.23357 1210 ft 107 kts 253°
2026-05-06 19:19 48.69094 9.22699 1223 ft 52 kts 253°
2026-05-06 19:19 48.68991 9.22246 1250 ft 31 kts 254°
2026-05-06 19:20 48.68948 9.21948 1247 ft 27 kts 261°
2026-05-06 19:20 48.68952 9.21681 1254 ft 23 kts 281°
2026-05-06 19:20 48.68982 9.21513 1260 ft 14 kts 285°
2026-05-06 19:20 48.69001 9.21382 1259 ft 12 kts 278°
2026-05-06 19:21 48.68991 9.21273 1262 ft 10 kts 253°
2026-05-06 19:21 48.68970 9.21174 1268 ft 10 kts 254°
2026-05-06 19:21 48.68950 9.21068 1267 ft 11 kts 254°
2026-05-06 19:21 48.68926 9.20942 1272 ft 13 kts 253°
2026-05-06 19:22 48.68898 9.20798 1274 ft 15 kts 257°
2026-05-06 19:22 48.68939 9.20662 1278 ft 15 kts 310°
2026-05-06 19:22 48.69011 9.20551 1284 ft 15 kts 315°
2026-05-06 19:22 48.69060 9.20422 1290 ft 14 kts 261°
2026-05-06 19:23 48.69033 9.20278 1295 ft 14 kts 252°
2026-05-06 19:23 48.69005 9.20133 1300 ft 13 kts 254°
2026-05-06 19:23 48.69002 9.20086 1302 ft 1 kts 299°
2026-05-06 19:23 48.69021 9.20069 1303 ft 5 kts 336°
2026-05-06 19:24 48.69055 9.20053 1305 ft 5 kts 342°
2026-05-06 19:24 48.69076 9.20043 1305 ft 0 kts 344°